A-11 Canister half - Orbit

View from above orbital plane
View from above orbital plane
View from above satellite
View from above satellite

Ground track
Ground track

The orbit data is extracted from the following two-line orbital elements,

1 00051U 60009C   13138.79950062 -.00000086  00000-0  00000+0 0  4422
2 00051 047.2139 069.6325 0104037 031.5266 064.5868 12.18221699348758
Epoch (UTC): 18 May 2013 19:11:16
Eccentricity: 0.0104037
inclination: 47.2139°
perigee height: 1517 km
apogee height: 1683 km
right ascension of ascending node: 69.6325°
argument of perigee: 31.5266°
revolutions per day: 12.18221699
mean anomaly at epoch: 64.5868°
orbit number at epoch: 34875

The dashed part of the orbit path shows where the satellite is in the earth's shadow,  

Developed and maintained by Chris Peat, Heavens-Above GmbH. Please read the updated FAQ before sending e-mail. Imprint. DLR